Time,TemperatureF,DewpointF,PressureIn,WindDirection,WindDirectionDegrees,WindSpeedMPH,WindSpeedGustMPH,Humidity,HourlyPrecipIn,Conditions,Clouds,dailyrainin,SoftwareType,DateUTC
2013-01-25 00:02:00,52.7,50.5,30.41,NE,45,2.8,3.7,92,0.00,,,0.00,Rainwise IP-100,2013-01-25 08:02:00,
2013-01-25 00:07:00,52.7,50.5,30.40,ENE,67,2.1,4.0,92,0.00,,,0.00,Rainwise IP-100,2013-01-25 08:07:00,
2013-01-25 00:12:00,52.7,50.5,30.40,East,90,1.9,3.7,92,0.00,,,0.00,Rainwise IP-100,2013-01-25 08:12:00,
2013-01-25 00:17:00,52.6,50.5,30.41,ENE,67,2.6,3.7,92,0.00,,,0.00,Rainwise IP-100,2013-01-25 08:17:00,
2013-01-25 00:22:00,52.5,50.5,30.40,NE,45,2.1,3.0,92,0.00,,,0.00,Rainwise IP-100,2013-01-25 08:22:00,
2013-01-25 00:27:00,52.4,50.0,30.40,NE,45,2.6,4.9,92,0.00,,,0.00,Rainwise IP-100,2013-01-25 08:27:00,
2013-01-25 00:32:00,52.3,50.0,30.40,NE,45,3.7,4.4,92,0.00,,,0.00,Rainwise IP-100,2013-01-25 08:32:00,
2013-01-25 00:37:00,52.2,50.0,30.40,NE,45,1.2,4.0,92,0.00,,,0.00,Rainwise IP-100,2013-01-25 08:37:00,
2013-01-25 00:42:00,52.2,50.0,30.40,ENE,67,3.5,4.2,92,0.00,,,0.00,Rainwise IP-100,2013-01-25 08:42:00,
2013-01-25 00:47:00,52.3,50.0,30.40,ENE,67,0.0,4.2,92,0.00,,,0.00,Rainwise IP-100,2013-01-25 08:47:00,
2013-01-25 00:52:00,52.4,50.0,30.40,ENE,67,0.0,0.0,92,0.00,,,0.00,Rainwise IP-100,2013-01-25 08:52:00,
2013-01-25 00:57:00,52.3,50.0,30.41,ENE,67,0.0,0.0,92,0.00,,,0.00,Rainwise IP-100,2013-01-25 08:57:00,
2013-01-25 01:02:00,52.3,50.0,30.40,ENE,67,1.4,1.6,92,0.00,,,0.00,Rainwise IP-100,2013-01-25 09:02:00,
2013-01-25 01:08:00,52.3,50.0,30.40,ENE,67,0.0,1.6,92,0.00,,,0.00,Rainwise IP-100,2013-01-25 09:08:00,
2013-01-25 01:13:00,52.4,50.0,30.40,ENE,67,0.0,1.4,92,0.00,,,0.00,Rainwise IP-100,2013-01-25 09:13:00,
2013-01-25 01:18:00,52.4,49.0,30.40,ENE,67,0.0,1.6,91,0.00,,,0.00,Rainwise IP-100,2013-01-25 09:18:00,
2013-01-25 01:23:00,52.5,50.0,30.40,ENE,67,0.0,2.8,91,0.00,,,0.00,Rainwise IP-100,2013-01-25 09:23:00,
2013-01-25 01:28:00,52.6,50.0,30.41,ENE,67,0.0,2.6,91,0.00,,,0.00,Rainwise IP-100,2013-01-25 09:28:00,
2013-01-25 01:33:00,52.7,50.0,30.41,ENE,67,1.6,1.9,91,0.00,,,0.00,Rainwise IP-100,2013-01-25 09:33:00,
2013-01-25 01:38:00,52.7,50.0,30.41,ENE,67,0.0,2.1,91,0.00,,,0.00,Rainwise IP-100,2013-01-25 09:38:00,
2013-01-25 01:43:00,52.8,50.0,30.41,ENE,67,2.1,2.1,91,0.00,,,0.00,Rainwise IP-100,2013-01-25 09:43:00,
2013-01-25 02:15:00,52.6,50.5,30.41,NE,45,0.0,1.2,92,0.00,,,0.00,Rainwise IP-100,2013-01-25 10:15:00,
2013-01-25 02:20:00,52.7,50.5,30.42,NE,45,0.0,0.0,92,0.00,,,0.00,Rainwise IP-100,2013-01-25 10:20:00,
2013-01-25 02:25:00,52.7,50.5,30.41,NE,45,0.0,0.0,92,0.00,,,0.00,Rainwise IP-100,2013-01-25 10:25:00,
2013-01-25 02:30:00,52.7,50.5,30.41,NE,45,1.4,1.9,92,0.00,,,0.00,Rainwise IP-100,2013-01-25 10:30:00,
2013-01-25 02:35:00,52.7,50.5,30.42,NE,45,0.0,1.9,92,0.00,,,0.00,Rainwise IP-100,2013-01-25 10:35:00,
2013-01-25 02:40:00,52.7,50.5,30.41,NE,45,1.4,1.9,92,0.00,,,0.00,Rainwise IP-100,2013-01-25 10:40:00,
2013-01-25 02:45:00,52.6,50.5,30.40,NE,45,0.0,1.4,93,0.00,,,0.00,Rainwise IP-100,2013-01-25 10:45:00,
2013-01-25 02:50:00,52.5,50.5,30.40,East,90,1.4,4.2,93,0.00,,,0.00,Rainwise IP-100,2013-01-25 10:50:00,
2013-01-25 02:55:00,52.4,50.5,30.40,East,90,2.3,3.0,94,0.00,,,0.00,Rainwise IP-100,2013-01-25 10:55:00,
2013-01-25 03:00:00,52.2,50.5,30.40,ENE,67,1.6,4.2,94,0.00,,,0.00,Rainwise IP-100,2013-01-25 11:00:00,
2013-01-25 03:05:00,52.0,50.5,30.40,ENE,67,0.0,2.8,95,0.00,,,0.00,Rainwise IP-100,2013-01-25 11:05:00,
2013-01-25 03:10:00,51.8,50.5,30.39,NE,45,3.3,4.0,95,0.00,,,0.00,Rainwise IP-100,2013-01-25 11:10:00,
2013-01-25 03:15:00,51.8,50.5,30.39,NE,45,1.9,4.0,95,0.00,,,0.00,Rainwise IP-100,2013-01-25 11:15:00,
2013-01-25 03:20:00,51.7,50.5,30.39,NE,45,2.3,4.9,95,0.00,,,0.00,Rainwise IP-100,2013-01-25 11:20:00,
2013-01-25 03:25:00,51.6,50.5,30.39,ENE,67,2.6,4.0,95,0.00,,,0.00,Rainwise IP-100,2013-01-25 11:25:00,
2013-01-25 03:30:00,51.6,50.5,30.39,ENE,67,1.9,5.1,96,0.00,,,0.00,Rainwise IP-100,2013-01-25 11:30:00,
2013-01-25 03:35:00,51.5,50.5,30.38,East,90,1.2,3.7,96,0.00,,,0.00,Rainwise IP-100,2013-01-25 11:35:00,
2013-01-25 03:40:00,51.4,50.0,30.38,ENE,67,1.4,3.7,96,0.00,,,0.00,Rainwise IP-100,2013-01-25 11:40:00,
2013-01-25 03:45:00,51.3,50.0,30.38,ENE,67,2.6,3.7,96,0.00,,,0.00,Rainwise IP-100,2013-01-25 11:45:00,
2013-01-25 03:50:00,51.1,50.0,30.38,NE,45,2.3,3.7,96,0.00,,,0.00,Rainwise IP-100,2013-01-25 11:50:00,
2013-01-25 03:55:00,51.0,50.0,30.37,NE,45,3.3,5.6,96,0.00,,,0.00,Rainwise IP-100,2013-01-25 11:55:00,
2013-01-25 04:00:00,51.0,50.0,30.37,NE,45,5.4,6.1,96,0.00,,,0.00,Rainwise IP-100,2013-01-25 12:00:00,
2013-01-25 04:05:00,51.2,50.0,30.38,NNE,22,2.6,6.1,96,0.00,,,0.00,Rainwise IP-100,2013-01-25 12:05:00,
2013-01-25 04:10:00,51.2,50.0,30.38,NNE,22,0.0,3.0,96,0.00,,,0.00,Rainwise IP-100,2013-01-25 12:10:00,
2013-01-25 04:15:00,51.2,50.0,30.38,East,90,0.0,2.3,96,0.00,,,0.00,Rainwise IP-100,2013-01-25 12:15:00,
2013-01-25 04:20:00,51.1,50.0,30.38,NNE,22,0.0,2.3,96,0.00,,,0.00,Rainwise IP-100,2013-01-25 12:20:00,
2013-01-25 04:25:00,51.1,50.0,30.38,NNE,22,2.3,2.3,96,0.00,,,0.00,Rainwise IP-100,2013-01-25 12:25:00,
2013-01-25 04:30:00,51.4,50.0,30.38,North,360,3.0,5.1,96,0.00,,,0.00,Rainwise IP-100,2013-01-25 12:30:00,
2013-01-25 04:35:00,51.6,50.5,30.38,NNE,22,3.0,4.2,96,0.00,,,0.00,Rainwise IP-100,2013-01-25 12:35:00,
2013-01-25 04:40:00,51.7,50.5,30.38,NNE,22,4.9,5.8,96,0.00,,,0.00,Rainwise IP-100,2013-01-25 12:40:00,
2013-01-25 04:45:00,51.8,50.5,30.38,NE,45,3.7,6.5,95,0.00,,,0.00,Rainwise IP-100,2013-01-25 12:45:00,
2013-01-25 04:50:00,52.0,50.5,30.38,NE,45,3.3,4.7,95,0.00,,,0.00,Rainwise IP-100,2013-01-25 12:50:00,
2013-01-25 04:55:00,52.1,50.5,30.38,ENE,67,0.0,5.1,95,0.00,,,0.00,Rainwise IP-100,2013-01-25 12:55:00,
2013-01-25 05:00:00,52.1,50.5,30.38,NE,45,4.4,4.4,95,0.00,,,0.00,Rainwise IP-100,2013-01-25 13:00:00,
2013-01-25 05:05:00,51.9,50.5,30.38,NNE,22,3.5,5.6,95,0.00,,,0.00,Rainwise IP-100,2013-01-25 13:05:00,
2013-01-25 05:10:00,51.9,50.5,30.38,NNE,22,1.6,4.4,95,0.00,,,0.00,Rainwise IP-100,2013-01-25 13:10:00,
2013-01-25 05:15:00,51.9,50.5,30.38,NE,45,3.0,4.4,95,0.00,,,0.00,Rainwise IP-100,2013-01-25 13:15:00,
2013-01-25 05:20:00,52.0,50.5,30.38,NE,45,2.6,4.7,95,0.00,,,0.00,Rainwise IP-100,2013-01-25 13:20:00,
2013-01-25 05:25:00,52.0,50.5,30.38,NE,45,3.3,4.7,95,0.00,,,0.00,Rainwise IP-100,2013-01-25 13:25:00,
2013-01-25 05:30:00,52.0,50.5,30.38,NE,45,1.6,4.7,95,0.00,,,0.00,Rainwise IP-100,2013-01-25 13:30:00,
2013-01-25 05:35:00,52.0,50.5,30.38,NNE,22,0.0,3.7,95,0.00,,,0.00,Rainwise IP-100,2013-01-25 13:35:00,
2013-01-25 05:40:00,52.0,50.5,30.39,East,90,1.4,3.3,95,0.00,,,0.00,Rainwise IP-100,2013-01-25 13:40:00,
2013-01-25 05:45:00,51.9,50.5,30.39,ENE,67,1.2,3.3,95,0.00,,,0.00,Rainwise IP-100,2013-01-25 13:45:00,
2013-01-25 05:50:00,51.8,50.5,30.39,ENE,67,0.0,2.3,95,0.00,,,0.00,Rainwise IP-100,2013-01-25 13:50:00,
2013-01-25 05:55:00,51.8,50.5,30.39,ENE,67,0.0,1.9,95,0.00,,,0.00,Rainwise IP-100,2013-01-25 13:55:00,
2013-01-25 06:00:00,51.8,50.5,30.39,ENE,67,0.0,3.5,95,0.00,,,0.00,Rainwise IP-100,2013-01-25 14:00:00,
2013-01-25 06:05:00,51.8,50.5,30.38,East,90,0.0,5.1,95,0.00,,,0.00,Rainwise IP-100,2013-01-25 14:05:00,
2013-01-25 06:10:00,51.9,50.5,30.39,ENE,67,0.0,3.3,95,0.00,,,0.00,Rainwise IP-100,2013-01-25 14:10:00,
2013-01-25 06:15:00,51.9,50.5,30.39,ENE,67,0.0,1.9,95,0.00,,,0.00,Rainwise IP-100,2013-01-25 14:15:00,
2013-01-25 06:20:00,51.9,50.5,30.39,East,90,0.0,1.4,95,0.00,,,0.00,Rainwise IP-100,2013-01-25 14:20:00,
2013-01-25 06:25:00,51.8,50.5,30.39,East,90,2.1,2.8,95,0.00,,,0.00,Rainwise IP-100,2013-01-25 14:25:00,
2013-01-25 06:30:00,51.8,50.5,30.39,ENE,67,0.0,3.7,96,0.00,,,0.00,Rainwise IP-100,2013-01-25 14:30:00,
2013-01-25 06:35:00,51.8,50.5,30.39,South,180,0.0,2.1,96,0.00,,,0.00,Rainwise IP-100,2013-01-25 14:35:00,
2013-01-25 06:40:00,51.8,50.5,30.39,East,90,2.1,2.1,96,0.00,,,0.00,Rainwise IP-100,2013-01-25 14:40:00,
2013-01-25 06:45:00,51.8,50.5,30.39,ENE,67,1.4,3.0,96,0.00,,,0.00,Rainwise IP-100,2013-01-25 14:45:00,
2013-01-25 06:50:00,51.8,50.5,30.39,ESE,112,2.6,2.8,96,0.00,,,0.00,Rainwise IP-100,2013-01-25 14:50:00,
2013-01-25 06:55:00,51.8,50.5,30.39,ESE,112,2.3,3.3,96,0.00,,,0.00,Rainwise IP-100,2013-01-25 14:55:00,
2013-01-25 07:00:00,51.8,50.5,30.39,ESE,112,1.4,3.3,96,0.00,,,0.00,Rainwise IP-100,2013-01-25 15:00:00,
2013-01-25 07:05:00,51.8,50.5,30.38,East,90,0.0,4.0,96,0.00,,,0.00,Rainwise IP-100,2013-01-25 15:05:00,
2013-01-25 07:10:00,51.8,50.5,30.38,ESE,112,0.0,4.0,96,0.00,,,0.00,Rainwise IP-100,2013-01-25 15:10:00,
2013-01-25 07:15:00,51.8,50.5,30.38,East,90,2.1,4.9,96,0.00,,,0.00,Rainwise IP-100,2013-01-25 15:15:00,
2013-01-25 07:20:00,51.8,50.5,30.38,East,90,2.8,3.5,96,0.00,,,0.00,Rainwise IP-100,2013-01-25 15:20:00,
2013-01-25 07:25:00,51.7,50.5,30.38,ENE,67,2.6,6.5,96,0.00,,,0.00,Rainwise IP-100,2013-01-25 15:25:00,
2013-01-25 07:30:00,51.6,50.5,30.37,ESE,112,1.2,4.4,96,0.00,,,0.00,Rainwise IP-100,2013-01-25 15:30:00,
2013-01-25 07:35:00,51.5,51.0,30.37,NE,45,2.6,7.0,97,0.00,,,0.00,Rainwise IP-100,2013-01-25 15:35:00,
2013-01-25 07:40:00,51.4,50.5,30.38,NE,45,1.4,4.2,97,0.00,,,0.00,Rainwise IP-100,2013-01-25 15:40:00,
2013-01-25 07:45:00,51.3,50.5,30.37,East,90,2.6,4.4,97,0.00,,,0.00,Rainwise IP-100,2013-01-25 15:45:00,
2013-01-25 07:50:00,51.1,50.5,30.37,East,90,1.4,5.1,97,0.00,,,0.00,Rainwise IP-100,2013-01-25 15:50:00,
2013-01-25 07:55:00,51.1,50.5,30.38,ENE,67,0.0,4.4,97,0.00,,,0.00,Rainwise IP-100,2013-01-25 15:55:00,
2013-01-25 08:00:00,51.1,50.5,30.38,ESE,112,1.2,2.3,97,0.00,,,0.00,Rainwise IP-100,2013-01-25 16:00:00,
2013-01-25 08:05:00,51.0,50.5,30.38,ESE,112,2.1,4.2,97,0.00,,,0.00,Rainwise IP-100,2013-01-25 16:05:00,
2013-01-25 08:10:00,51.0,50.5,30.38,East,90,1.4,4.2,97,0.00,,,0.00,Rainwise IP-100,2013-01-25 16:10:00,
2013-01-25 08:15:00,51.1,50.5,30.38,ESE,112,0.0,2.8,98,0.00,,,0.00,Rainwise IP-100,2013-01-25 16:15:00,
2013-01-25 08:20:00,51.2,50.5,30.38,East,90,1.6,2.3,98,0.00,,,0.00,Rainwise IP-100,2013-01-25 16:20:00,
2013-01-25 08:25:00,51.4,50.5,30.38,ESE,112,2.6,3.5,97,0.00,,,0.00,Rainwise IP-100,2013-01-25 16:25:00,
2013-01-25 08:30:00,51.9,51.0,30.38,ESE,112,2.1,4.4,97,0.00,,,0.00,Rainwise IP-100,2013-01-25 16:30:00,
2013-01-25 08:35:00,52.3,50.5,30.38,East,90,4.0,5.4,96,0.00,,,0.00,Rainwise IP-100,2013-01-25 16:35:00,
2013-01-25 08:40:00,52.9,51.0,30.38,ESE,112,1.9,4.7,96,0.00,,,0.00,Rainwise IP-100,2013-01-25 16:40:00,
2013-01-25 08:45:00,53.3,52.0,30.38,ESE,112,3.7,5.8,94,0.00,,,0.00,Rainwise IP-100,2013-01-25 16:45:00,
2013-01-25 08:50:00,53.5,52.0,30.39,ESE,112,3.5,5.6,94,0.00,,,0.00,Rainwise IP-100,2013-01-25 16:50:00,
2013-01-25 08:55:00,53.6,51.0,30.39,ESE,112,2.3,6.1,93,0.00,,,0.00,Rainwise IP-100,2013-01-25 16:55:00,
2013-01-25 09:00:00,53.6,51.0,30.39,ESE,112,3.3,4.9,93,0.00,,,0.00,Rainwise IP-100,2013-01-25 17:00:00,
2013-01-25 09:05:00,53.7,51.0,30.39,East,90,5.4,7.7,93,0.00,,,0.00,Rainwise IP-100,2013-01-25 17:05:00,
2013-01-25 09:10:00,53.8,52.0,30.39,SE,135,3.3,6.5,93,0.00,,,0.00,Rainwise IP-100,2013-01-25 17:10:00,
2013-01-25 09:15:00,53.8,52.0,30.38,ESE,112,3.5,8.6,93,0.00,,,0.00,Rainwise IP-100,2013-01-25 17:15:00,
2013-01-25 09:20:00,53.7,51.0,30.38,ENE,67,5.1,8.6,93,0.00,,,0.00,Rainwise IP-100,2013-01-25 17:20:00,
2013-01-25 09:25:00,53.5,51.0,30.38,ENE,67,2.8,6.8,93,0.00,,,0.00,Rainwise IP-100,2013-01-25 17:25:00,
2013-01-25 09:30:00,53.5,51.0,30.39,NE,45,3.5,5.4,93,0.00,,,0.00,Rainwise IP-100,2013-01-25 17:30:00,
2013-01-25 09:35:00,53.7,51.0,30.39,NNE,22,3.7,4.9,93,0.00,,,0.00,Rainwise IP-100,2013-01-25 17:35:00,
2013-01-25 09:40:00,54.1,52.0,30.39,NNE,22,5.1,6.5,93,0.00,,,0.00,Rainwise IP-100,2013-01-25 17:40:00,
2013-01-25 09:45:00,54.8,53.0,30.40,NE,45,3.7,5.4,92,0.00,,,0.00,Rainwise IP-100,2013-01-25 17:45:00,
2013-01-25 09:50:00,55.3,53.0,30.39,ESE,112,3.3,6.8,90,0.00,,,0.00,Rainwise IP-100,2013-01-25 17:50:00,
2013-01-25 09:55:00,56.1,53.0,30.39,ESE,112,2.6,6.1,89,0.00,,,0.00,Rainwise IP-100,2013-01-25 17:55:00,
2013-01-25 10:00:00,56.9,53.5,30.39,ESE,112,4.0,5.6,88,0.00,,,0.00,Rainwise IP-100,2013-01-25 18:00:00,
2013-01-25 10:05:00,57.3,53.5,30.39,ESE,112,3.0,6.5,86,0.00,,,0.00,Rainwise IP-100,2013-01-25 18:05:00,
2013-01-25 10:10:00,57.3,53.5,30.39,ESE,112,3.3,6.5,85,0.00,,,0.00,Rainwise IP-100,2013-01-25 18:10:00,
2013-01-25 10:15:00,57.4,53.5,30.39,ESE,112,3.3,7.2,85,0.00,,,0.00,Rainwise IP-100,2013-01-25 18:15:00,
2013-01-25 10:20:00,57.4,53.5,30.39,East,90,8.2,10.3,85,0.00,,,0.00,Rainwise IP-100,2013-01-25 18:20:00,
2013-01-25 10:25:00,57.3,53.0,30.39,NE,45,3.0,8.2,84,0.00,,,0.00,Rainwise IP-100,2013-01-25 18:25:00,
2013-01-25 10:30:00,57.5,53.0,30.38,ESE,112,3.5,9.1,84,0.00,,,0.00,Rainwise IP-100,2013-01-25 18:30:00,
2013-01-25 10:35:00,58.0,53.5,30.38,ESE,112,4.4,7.0,84,0.00,,,0.00,Rainwise IP-100,2013-01-25 18:35:00,
2013-01-25 10:40:00,58.3,53.5,30.38,ESE,112,4.7,10.3,83,0.00,,,0.00,Rainwise IP-100,2013-01-25 18:40:00,
2013-01-25 10:45:00,58.5,53.5,30.38,ESE,112,4.2,8.6,82,0.00,,,0.00,Rainwise IP-100,2013-01-25 18:45:00,
2013-01-25 10:50:00,58.7,53.5,30.39,ENE,67,1.2,7.5,82,0.00,,,0.00,Rainwise IP-100,2013-01-25 18:50:00,
2013-01-25 10:55:00,58.9,53.5,30.39,East,90,3.3,7.7,81,0.00,,,0.00,Rainwise IP-100,2013-01-25 18:55:00,
2013-01-25 11:00:00,59.3,53.5,30.38,ESE,112,4.4,7.2,80,0.00,,,0.00,Rainwise IP-100,2013-01-25 19:00:00,
2013-01-25 11:05:00,59.7,53.5,30.38,ESE,112,3.7,10.0,80,0.00,,,0.00,Rainwise IP-100,2013-01-25 19:05:00,
2013-01-25 11:10:00,60.0,53.5,30.38,ENE,67,2.3,9.3,79,0.00,,,0.00,Rainwise IP-100,2013-01-25 19:10:00,
2013-01-25 11:15:00,59.9,53.5,30.39,SE,135,0.0,7.2,79,0.00,,,0.00,Rainwise IP-100,2013-01-25 19:15:00,
2013-01-25 11:20:00,60.5,53.5,30.38,ENE,67,1.4,4.2,78,0.00,,,0.00,Rainwise IP-100,2013-01-25 19:20:00,
2013-01-25 11:25:00,61.2,54.0,30.38,ESE,112,4.4,7.0,77,0.00,,,0.00,Rainwise IP-100,2013-01-25 19:25:00,
2013-01-25 11:30:00,61.3,53.5,30.38,ESE,112,4.0,6.1,75,0.00,,,0.00,Rainwise IP-100,2013-01-25 19:30:00,
2013-01-25 11:35:00,61.3,53.5,30.37,ENE,67,1.6,6.1,75,0.00,,,0.00,Rainwise IP-100,2013-01-25 19:35:00,
2013-01-25 11:40:00,61.0,53.5,30.37,ESE,112,3.0,9.3,76,0.00,,,0.00,Rainwise IP-100,2013-01-25 19:40:00,
2013-01-25 11:45:00,61.3,54.0,30.37,SE,135,4.2,6.8,76,0.00,,,0.00,Rainwise IP-100,2013-01-25 19:45:00,
2013-01-25 11:50:00,61.6,53.5,30.37,South,180,6.1,7.7,75,0.00,,,0.00,Rainwise IP-100,2013-01-25 19:50:00,
2013-01-25 11:55:00,61.4,53.5,30.37,ESE,112,1.9,6.1,75,0.00,,,0.00,Rainwise IP-100,2013-01-25 19:55:00,
2013-01-25 12:00:00,61.6,53.5,30.36,ESE,112,2.6,6.3,75,0.00,,,0.00,Rainwise IP-100,2013-01-25 20:00:00,
2013-01-25 12:05:00,62.0,53.5,30.36,SSE,157,3.7,6.3,74,0.00,,,0.00,Rainwise IP-100,2013-01-25 20:05:00,
2013-01-25 12:10:00,62.2,53.5,30.36,SE,135,2.1,6.3,74,0.00,,,0.00,Rainwise IP-100,2013-01-25 20:10:00,
2013-01-25 12:15:00,62.9,54.0,30.36,ESE,112,0.0,3.7,73,0.00,,,0.00,Rainwise IP-100,2013-01-25 20:15:00,
2013-01-25 12:20:00,63.4,54.0,30.35,NE,45,2.3,7.5,71,0.00,,,0.00,Rainwise IP-100,2013-01-25 20:20:00,
2013-01-25 12:25:00,63.3,53.5,30.34,East,90,2.1,4.9,70,0.00,,,0.00,Rainwise IP-100,2013-01-25 20:25:00,
2013-01-25 12:30:00,63.3,54.0,30.34,SSE,157,3.3,5.6,71,0.00,,,0.00,Rainwise IP-100,2013-01-25 20:30:00,
2013-01-25 12:35:00,63.4,53.5,30.34,SE,135,2.3,8.2,70,0.00,,,0.00,Rainwise IP-100,2013-01-25 20:35:00,
2013-01-25 12:40:00,63.6,53.5,30.34,SE,135,1.4,6.1,70,0.00,,,0.00,Rainwise IP-100,2013-01-25 20:40:00,
2013-01-25 12:45:00,64.2,54.0,30.33,ESE,112,4.7,4.7,70,0.00,,,0.00,Rainwise IP-100,2013-01-25 20:45:00,
2013-01-25 12:50:00,64.8,54.0,30.33,ESE,112,5.1,5.8,68,0.00,,,0.00,Rainwise IP-100,2013-01-25 20:50:00,
2013-01-25 12:55:00,65.2,54.0,30.33,ESE,112,5.1,5.1,67,0.00,,,0.00,Rainwise IP-100,2013-01-25 20:55:00,
2013-01-25 13:00:00,65.3,54.0,30.33,SE,135,2.1,5.8,67,0.00,,,0.00,Rainwise IP-100,2013-01-25 21:00:00,
2013-01-25 13:05:00,65.1,54.0,30.33,ESE,112,5.8,7.2,67,0.00,,,0.00,Rainwise IP-100,2013-01-25 21:05:00,
2013-01-25 13:10:00,65.1,54.0,30.32,East,90,1.4,8.6,67,0.00,,,0.00,Rainwise IP-100,2013-01-25 21:10:00,
2013-01-25 13:15:00,65.1,54.0,30.32,ENE,67,1.6,5.8,67,0.00,,,0.00,Rainwise IP-100,2013-01-25 21:15:00,
2013-01-25 13:20:00,65.0,53.5,30.32,NNW,337,1.2,6.8,66,0.00,,,0.00,Rainwise IP-100,2013-01-25 21:20:00,
2013-01-25 13:25:00,65.0,53.5,30.32,NNE,22,2.8,5.8,66,0.00,,,0.00,Rainwise IP-100,2013-01-25 21:25:00,
2013-01-25 13:30:00,64.6,53.5,30.32,NNW,337,4.7,7.7,67,0.00,,,0.00,Rainwise IP-100,2013-01-25 21:30:00,
2013-01-25 13:35:00,64.2,53.0,30.32,NNE,22,3.5,8.4,67,0.00,,,0.00,Rainwise IP-100,2013-01-25 21:35:00,
2013-01-25 13:40:00,64.3,53.5,30.32,NNW,337,4.0,6.3,68,0.00,,,0.00,Rainwise IP-100,2013-01-25 21:40:00,
2013-01-25 13:45:00,64.4,53.5,30.31,NE,45,4.0,8.9,68,0.00,,,0.00,Rainwise IP-100,2013-01-25 21:45:00,
2013-01-25 13:50:00,64.4,53.5,30.31,NNE,22,7.0,7.0,68,0.00,,,0.00,Rainwise IP-100,2013-01-25 21:50:00,
2013-01-25 13:55:00,64.2,53.5,30.32,ENE,67,2.3,8.4,68,0.00,,,0.00,Rainwise IP-100,2013-01-25 21:55:00,
2013-01-25 14:00:00,64.0,53.5,30.31,NNW,337,2.3,7.5,68,0.00,,,0.00,Rainwise IP-100,2013-01-25 22:00:00,
2013-01-25 14:05:00,64.4,53.5,30.31,NNE,22,0.0,4.9,68,0.00,,,0.00,Rainwise IP-100,2013-01-25 22:05:00,
2013-01-25 14:10:00,65.3,54.0,30.31,ENE,67,1.6,3.7,67,0.00,,,0.00,Rainwise IP-100,2013-01-25 22:10:00,
2013-01-25 14:15:00,66.1,54.0,30.31,West,270,0.0,6.5,65,0.00,,,0.00,Rainwise IP-100,2013-01-25 22:15:00,
2013-01-25 14:20:00,66.5,54.0,30.31,WNW,292,8.9,9.6,64,0.00,,,0.00,Rainwise IP-100,2013-01-25 22:20:00,
2013-01-25 14:25:00,65.6,53.0,30.31,WNW,292,8.4,12.1,64,0.00,,,0.00,Rainwise IP-100,2013-01-25 22:25:00,
2013-01-25 14:30:00,63.6,52.0,30.31,WNW,292,4.2,13.1,66,0.00,,,0.00,Rainwise IP-100,2013-01-25 22:30:00,
2013-01-25 14:35:00,62.8,52.0,30.31,WNW,292,4.4,9.8,67,0.00,,,0.00,Rainwise IP-100,2013-01-25 22:35:00,
2013-01-25 14:40:00,62.8,52.0,30.31,NW,315,6.5,9.3,68,0.00,,,0.00,Rainwise IP-100,2013-01-25 22:40:00,
2013-01-25 14:45:00,62.5,52.0,30.31,WNW,292,4.7,11.7,69,0.00,,,0.00,Rainwise IP-100,2013-01-25 22:45:00,
2013-01-25 14:50:00,62.0,52.0,30.31,WNW,292,5.4,11.4,70,0.00,,,0.00,Rainwise IP-100,2013-01-25 22:50:00,
2013-01-25 14:55:00,61.9,53.0,30.31,WNW,292,6.5,10.3,71,0.00,,,0.00,Rainwise IP-100,2013-01-25 22:55:00,
2013-01-25 15:00:00,62.2,53.0,30.30,NW,315,3.7,9.8,71,0.00,,,0.00,Rainwise IP-100,2013-01-25 23:00:00,
2013-01-25 15:05:00,62.4,53.0,30.31,WNW,292,3.7,8.6,71,0.00,,,0.00,Rainwise IP-100,2013-01-25 23:05:00,
2013-01-25 15:10:00,62.5,53.0,30.29,SSW,202,8.2,10.3,70,0.00,,,0.00,Rainwise IP-100,2013-01-25 23:10:00,
2013-01-25 15:15:00,62.5,53.0,30.30,NNW,337,2.8,9.6,70,0.00,,,0.00,Rainwise IP-100,2013-01-25 23:15:00,
2013-01-25 15:20:00,62.9,53.5,30.29,NNW,337,1.6,6.3,70,0.00,,,0.00,Rainwise IP-100,2013-01-25 23:20:00,
2013-01-25 15:25:00,63.6,53.5,30.30,ENE,67,1.9,5.1,69,0.00,,,0.00,Rainwise IP-100,2013-01-25 23:25:00,
2013-01-25 15:30:00,63.4,53.0,30.29,SW,225,0.0,7.2,68,0.00,,,0.00,Rainwise IP-100,2013-01-25 23:30:00,
2013-01-25 15:35:00,63.2,52.0,30.30,NNW,337,5.8,8.4,68,0.00,,,0.00,Rainwise IP-100,2013-01-25 23:35:00,
2013-01-25 15:40:00,63.0,52.0,30.30,WNW,292,7.0,7.5,68,0.00,,,0.00,Rainwise IP-100,2013-01-25 23:40:00,
2013-01-25 15:45:00,62.8,53.0,30.29,West,270,4.0,7.2,69,0.00,,,0.00,Rainwise IP-100,2013-01-25 23:45:00,
2013-01-25 15:50:00,63.1,53.0,30.29,WNW,292,1.9,5.4,69,0.00,,,0.00,Rainwise IP-100,2013-01-25 23:50:00,
2013-01-25 15:55:00,63.2,52.0,30.29,NNW,337,3.7,5.8,68,0.00,,,0.00,Rainwise IP-100,2013-01-25 23:55:00,
2013-01-25 16:00:00,63.0,52.0,30.29,WNW,292,0.0,5.1,68,0.00,,,0.00,Rainwise IP-100,2013-01-26 00:00:00,
2013-01-25 16:05:00,63.1,53.0,30.29,WNW,292,0.0,6.5,69,0.00,,,0.00,Rainwise IP-100,2013-01-26 00:05:00,
2013-01-25 16:10:00,63.2,53.0,30.28,WNW,292,0.0,5.4,69,0.00,,,0.00,Rainwise IP-100,2013-01-26 00:10:00,
2013-01-25 16:15:00,63.2,53.0,30.28,ENE,67,1.9,2.8,69,0.00,,,0.00,Rainwise IP-100,2013-01-26 00:15:00,
2013-01-25 16:20:00,63.4,53.5,30.28,NNE,22,0.0,2.6,69,0.00,,,0.00,Rainwise IP-100,2013-01-26 00:20:00,
2013-01-25 16:25:00,63.6,53.0,30.28,NNE,22,4.2,5.1,68,0.00,,,0.00,Rainwise IP-100,2013-01-26 00:25:00,
2013-01-25 16:30:00,63.4,53.0,30.28,NNW,337,2.8,6.5,68,0.00,,,0.00,Rainwise IP-100,2013-01-26 00:30:00,
2013-01-25 16:35:00,63.2,52.0,30.28,NE,45,1.9,4.7,68,0.00,,,0.00,Rainwise IP-100,2013-01-26 00:35:00,
2013-01-25 16:40:00,62.9,52.0,30.27,NNW,337,1.9,4.7,68,0.00,,,0.00,Rainwise IP-100,2013-01-26 00:40:00,
2013-01-25 16:45:00,62.6,52.0,30.28,NNE,22,1.6,4.9,68,0.00,,,0.00,Rainwise IP-100,2013-01-26 00:45:00,
2013-01-25 16:50:00,62.4,52.0,30.27,North,360,0.0,4.2,68,0.00,,,0.00,Rainwise IP-100,2013-01-26 00:50:00,
2013-01-25 16:55:00,62.2,52.0,30.27,NNW,337,4.9,4.9,69,0.00,,,0.00,Rainwise IP-100,2013-01-26 00:55:00,
2013-01-25 17:00:00,61.9,52.0,30.27,NE,45,1.6,5.4,70,0.00,,,0.00,Rainwise IP-100,2013-01-26 01:00:00,
2013-01-25 17:05:00,61.4,52.0,30.27,WNW,292,0.0,3.7,71,0.00,,,0.00,Rainwise IP-100,2013-01-26 01:05:00,
2013-01-25 17:10:00,60.9,52.0,30.27,ENE,67,1.2,4.4,73,0.00,,,0.00,Rainwise IP-100,2013-01-26 01:10:00,
2013-01-25 17:15:00,60.4,53.0,30.27,East,90,0.0,2.1,75,0.00,,,0.00,Rainwise IP-100,2013-01-26 01:15:00,
2013-01-25 17:20:00,60.0,53.0,30.28,East,90,0.0,0.0,76,0.00,,,0.00,Rainwise IP-100,2013-01-26 01:20:00,
2013-01-25 17:25:00,59.7,52.0,30.27,East,90,0.0,1.2,77,0.00,,,0.00,Rainwise IP-100,2013-01-26 01:25:00,
2013-01-25 17:30:00,59.4,53.0,30.27,East,90,0.0,1.2,78,0.00,,,0.00,Rainwise IP-100,2013-01-26 01:30:00,
2013-01-25 17:35:00,59.2,53.0,30.27,East,90,1.4,0.0,79,0.00,,,0.00,Rainwise IP-100,2013-01-26 01:35:00,
2013-01-25 17:40:00,58.9,53.0,30.28,East,90,0.0,1.9,79,0.00,,,0.00,Rainwise IP-100,2013-01-26 01:40:00,
2013-01-25 17:45:00,58.8,53.0,30.28,NNW,337,1.9,3.7,80,0.00,,,0.00,Rainwise IP-100,2013-01-26 01:45:00,
2013-01-25 17:50:00,58.8,53.5,30.28,NNW,337,0.0,3.5,81,0.00,,,0.00,Rainwise IP-100,2013-01-26 01:50:00,
2013-01-25 17:55:00,58.8,53.5,30.28,NNW,337,0.0,0.0,81,0.00,,,0.00,Rainwise IP-100,2013-01-26 01:55:00,
2013-01-25 18:00:00,58.6,53.5,30.28,NNW,337,1.6,1.6,81,0.00,,,0.00,Rainwise IP-100,2013-01-26 02:00:00,
2013-01-25 18:05:00,58.4,53.0,30.28,NNW,337,0.0,2.1,81,0.00,,,0.00,Rainwise IP-100,2013-01-26 02:05:00,
2013-01-25 18:10:00,58.3,53.0,30.27,NNW,337,0.0,0.0,81,0.00,,,0.00,Rainwise IP-100,2013-01-26 02:10:00,
2013-01-25 18:15:00,58.1,53.0,30.28,East,90,0.0,1.9,81,0.00,,,0.00,Rainwise IP-100,2013-01-26 02:15:00,
2013-01-25 18:20:00,58.0,53.0,30.27,ENE,67,0.0,2.6,82,0.00,,,0.00,Rainwise IP-100,2013-01-26 02:20:00,
2013-01-25 18:25:00,58.0,53.5,30.28,ENE,67,0.0,0.0,83,0.00,,,0.00,Rainwise IP-100,2013-01-26 02:25:00,
2013-01-25 18:30:00,57.8,53.5,30.28,North,360,1.2,1.4,83,0.00,,,0.00,Rainwise IP-100,2013-01-26 02:30:00,
2013-01-25 18:35:00,57.9,53.5,30.28,NNW,337,0.0,2.8,83,0.00,,,0.00,Rainwise IP-100,2013-01-26 02:35:00,
2013-01-25 18:40:00,57.9,53.0,30.28,NW,315,3.0,3.0,82,0.00,,,0.00,Rainwise IP-100,2013-01-26 02:40:00,
2013-01-25 18:45:00,58.0,53.0,30.28,WNW,292,3.3,4.9,82,0.00,,,0.00,Rainwise IP-100,2013-01-26 02:45:00,
2013-01-25 18:50:00,58.1,53.0,30.29,WNW,292,0.0,4.4,82,0.00,,,0.00,Rainwise IP-100,2013-01-26 02:50:00,
2013-01-25 18:55:00,57.8,53.0,30.29,WNW,292,4.7,8.9,82,0.00,,,0.00,Rainwise IP-100,2013-01-26 02:55:00,
2013-01-25 19:00:00,56.8,52.0,30.29,WNW,292,5.1,9.6,83,0.00,,,0.00,Rainwise IP-100,2013-01-26 03:00:00,
2013-01-25 19:05:00,56.0,51.0,30.29,WNW,292,6.3,7.2,84,0.00,,,0.00,Rainwise IP-100,2013-01-26 03:05:00,
2013-01-25 19:10:00,55.6,51.0,30.29,NW,315,3.5,11.0,85,0.00,,,0.00,Rainwise IP-100,2013-01-26 03:10:00,
2013-01-25 19:15:00,55.6,51.0,30.28,NW,315,2.3,7.9,85,0.00,,,0.00,Rainwise IP-100,2013-01-26 03:15:00,
2013-01-25 19:20:00,55.7,51.0,30.28,West,270,4.7,6.8,84,0.00,,,0.00,Rainwise IP-100,2013-01-26 03:20:00,
2013-01-25 19:25:00,55.9,50.5,30.28,NW,315,5.6,8.4,83,0.00,,,0.00,Rainwise IP-100,2013-01-26 03:25:00,
2013-01-25 19:30:00,56.2,50.5,30.29,WNW,292,5.1,7.9,83,0.00,,,0.00,Rainwise IP-100,2013-01-26 03:30:00,
2013-01-25 19:35:00,56.5,51.0,30.28,NW,315,4.0,9.6,82,0.00,,,0.00,Rainwise IP-100,2013-01-26 03:35:00,
2013-01-25 19:40:00,56.7,50.5,30.29,NW,315,3.0,6.8,81,0.00,,,0.00,Rainwise IP-100,2013-01-26 03:40:00,
2013-01-25 19:45:00,56.8,51.0,30.28,NW,315,4.0,5.8,81,0.00,,,0.00,Rainwise IP-100,2013-01-26 03:45:00,
2013-01-25 19:50:00,57.0,51.0,30.29,WNW,292,3.7,7.2,80,0.00,,,0.00,Rainwise IP-100,2013-01-26 03:50:00,
2013-01-25 19:55:00,57.2,51.0,30.28,SW,225,0.0,6.1,80,0.00,,,0.00,Rainwise IP-100,2013-01-26 03:55:00,
2013-01-25 20:00:00,57.2,51.0,30.29,SSW,202,3.3,4.7,80,0.00,,,0.00,Rainwise IP-100,2013-01-26 04:00:00,
2013-01-25 20:05:00,56.4,50.5,30.28,West,270,5.1,6.8,81,0.00,,,0.00,Rainwise IP-100,2013-01-26 04:05:00,
2013-01-25 20:10:00,55.4,50.5,30.29,WNW,292,5.4,6.5,83,0.00,,,0.00,Rainwise IP-100,2013-01-26 04:10:00,
2013-01-25 20:15:00,54.8,50.5,30.28,West,270,5.1,7.0,84,0.00,,,0.00,Rainwise IP-100,2013-01-26 04:15:00,
2013-01-25 20:20:00,54.5,50.5,30.28,WNW,292,0.0,6.1,85,0.00,,,0.00,Rainwise IP-100,2013-01-26 04:20:00,
2013-01-25 20:25:00,54.4,50.5,30.29,SSE,157,1.2,4.7,85,0.00,,,0.00,Rainwise IP-100,2013-01-26 04:25:00,
2013-01-25 20:30:00,54.2,50.0,30.28,SSE,157,1.2,4.2,86,0.00,,,0.00,Rainwise IP-100,2013-01-26 04:30:00,
2013-01-25 20:35:00,53.8,50.0,30.28,SSW,202,0.0,3.3,86,0.00,,,0.00,Rainwise IP-100,2013-01-26 04:35:00,
2013-01-25 20:40:00,53.4,50.0,30.28,South,180,1.2,4.0,87,0.00,,,0.00,Rainwise IP-100,2013-01-26 04:40:00,
2013-01-25 20:45:00,53.0,49.0,30.28,SSE,157,1.2,3.0,88,0.00,,,0.00,Rainwise IP-100,2013-01-26 04:45:00,
2013-01-25 20:50:00,52.8,50.0,30.28,SSE,157,0.0,2.6,89,0.00,,,0.00,Rainwise IP-100,2013-01-26 04:50:00,
2013-01-25 20:55:00,52.7,50.0,30.28,SSE,157,0.0,0.0,89,0.00,,,0.00,Rainwise IP-100,2013-01-26 04:55:00,
2013-01-25 21:00:00,52.6,50.0,30.28,SSE,157,0.0,0.0,90,0.00,,,0.00,Rainwise IP-100,2013-01-26 05:00:00,
2013-01-25 21:05:00,52.5,50.0,30.28,SSE,157,0.0,0.0,90,0.00,,,0.00,Rainwise IP-100,2013-01-26 05:05:00,
2013-01-25 21:10:00,52.5,50.0,30.28,SW,225,0.0,2.6,90,0.00,,,0.00,Rainwise IP-100,2013-01-26 05:10:00,
2013-01-25 21:15:00,52.5,50.0,30.28,SW,225,2.1,4.7,90,0.00,,,0.00,Rainwise IP-100,2013-01-26 05:15:00,
2013-01-25 21:20:00,52.6,50.0,30.28,SW,225,2.6,4.2,90,0.00,,,0.00,Rainwise IP-100,2013-01-26 05:20:00,
2013-01-25 21:25:00,52.6,50.0,30.29,WSW,247,0.0,2.6,90,0.00,,,0.00,Rainwise IP-100,2013-01-26 05:25:00,
2013-01-25 21:30:00,52.5,50.0,30.29,WNW,292,6.1,6.1,90,0.00,,,0.00,Rainwise IP-100,2013-01-26 05:30:00,
2013-01-25 21:35:00,52.7,50.0,30.29,NNW,337,2.8,7.9,90,0.00,,,0.00,Rainwise IP-100,2013-01-26 05:35:00,
2013-01-25 21:40:00,53.1,50.0,30.29,WNW,292,6.3,10.0,89,0.00,,,0.00,Rainwise IP-100,2013-01-26 05:40:00,
2013-01-25 21:45:00,52.9,49.0,30.29,West,270,3.3,7.5,88,0.00,,,0.00,Rainwise IP-100,2013-01-26 05:45:00,
2013-01-25 21:50:00,52.5,49.0,30.29,SSE,157,2.1,4.2,88,0.00,,,0.00,Rainwise IP-100,2013-01-26 05:50:00,
2013-01-25 21:55:00,52.2,49.0,30.29,West,270,3.0,5.4,89,0.00,,,0.00,Rainwise IP-100,2013-01-26 05:55:00,
2013-01-25 22:00:00,52.1,49.0,30.29,WNW,292,3.5,5.4,90,0.00,,,0.00,Rainwise IP-100,2013-01-26 06:00:00,
2013-01-25 22:05:00,52.2,49.0,30.29,WSW,247,0.0,4.9,90,0.00,,,0.00,Rainwise IP-100,2013-01-26 06:05:00,
2013-01-25 22:10:00,52.2,49.0,30.29,SW,225,3.3,7.0,90,0.00,,,0.00,Rainwise IP-100,2013-01-26 06:10:00,
2013-01-25 22:15:00,51.9,49.0,30.29,SW,225,0.0,7.5,90,0.00,,,0.00,Rainwise IP-100,2013-01-26 06:15:00,
2013-01-25 22:20:00,51.8,49.0,30.29,WNW,292,0.0,4.2,90,0.00,,,0.00,Rainwise IP-100,2013-01-26 06:20:00,
2013-01-25 22:25:00,51.8,49.0,30.29,SSW,202,0.0,4.4,91,0.00,,,0.00,Rainwise IP-100,2013-01-26 06:25:00,
2013-01-25 22:30:00,51.8,49.0,30.29,WSW,247,2.3,4.0,91,0.00,,,0.00,Rainwise IP-100,2013-01-26 06:30:00,
2013-01-25 22:35:00,51.8,49.0,30.29,SW,225,2.6,3.5,91,0.00,,,0.00,Rainwise IP-100,2013-01-26 06:35:00,
2013-01-25 22:40:00,51.8,49.0,30.29,WSW,247,0.0,5.1,91,0.00,,,0.00,Rainwise IP-100,2013-01-26 06:40:00,
2013-01-25 22:45:00,51.8,49.0,30.28,WSW,247,1.4,5.6,91,0.00,,,0.00,Rainwise IP-100,2013-01-26 06:45:00,
2013-01-25 22:50:00,51.7,49.0,30.28,West,270,2.6,7.5,91,0.00,,,0.00,Rainwise IP-100,2013-01-26 06:50:00,
2013-01-25 22:55:00,51.6,50.0,30.28,SSW,202,1.4,7.5,92,0.00,,,0.00,Rainwise IP-100,2013-01-26 06:55:00,
2013-01-25 23:00:00,51.5,50.0,30.29,SSW,202,1.6,7.0,92,0.00,,,0.00,Rainwise IP-100,2013-01-26 07:00:00,
2013-01-25 23:05:00,51.4,49.0,30.29,WSW,247,0.0,5.1,92,0.00,,,0.00,Rainwise IP-100,2013-01-26 07:05:00,
2013-01-25 23:10:00,51.4,49.0,30.29,WSW,247,3.3,6.5,92,0.00,,,0.00,Rainwise IP-100,2013-01-26 07:10:00,
2013-01-25 23:15:00,51.3,49.0,30.29,SW,225,1.2,7.9,93,0.00,,,0.00,Rainwise IP-100,2013-01-26 07:15:00,
2013-01-25 23:20:00,51.2,49.0,30.28,SSW,202,2.8,5.8,93,0.00,,,0.00,Rainwise IP-100,2013-01-26 07:20:00,
2013-01-25 23:25:00,51.2,49.0,30.29,SE,135,2.3,6.1,93,0.00,,,0.00,Rainwise IP-100,2013-01-26 07:25:00,
2013-01-25 23:30:00,51.2,49.0,30.29,South,180,0.0,3.7,93,0.00,,,0.00,Rainwise IP-100,2013-01-26 07:30:00,
2013-01-25 23:35:00,51.1,49.0,30.28,SW,225,1.6,5.8,93,0.00,,,0.00,Rainwise IP-100,2013-01-26 07:35:00,
2013-01-25 23:40:00,51.1,49.0,30.28,SSE,157,1.4,6.3,93,0.00,,,0.00,Rainwise IP-100,2013-01-26 07:40:00,
2013-01-25 23:45:00,51.0,49.0,30.28,SW,225,5.6,7.9,93,0.00,,,0.00,Rainwise IP-100,2013-01-26 07:45:00,
2013-01-25 23:50:00,51.0,49.0,30.28,NNW,337,0.0,5.8,93,0.00,,,0.00,Rainwise IP-100,2013-01-26 07:50:00,
2013-01-25 23:55:00,51.0,49.0,30.28,SSW,202,1.9,5.1,93,0.00,,,0.00,Rainwise IP-100,2013-01-26 07:55:00,